User: anonymous   Login
Location: Unspecified
(0.0000°N, 0.0000°E)
Time: 11:34:38
(UTC+00:00)
Language:

CBERS 2 - Orbit

View from above orbital plane
View from above orbital plane
View from above satellite
View from above satellite

Ground track
Ground track

The orbit data is extracted from the following two-line orbital elements,

1 28057U 03049A   17265.12453648 -.00000004  00000-0  13414-4 0  9994
2 28057  98.3439 217.3978 0000746  44.0241 316.1004 14.35570127729423
Epoch (UTC): 22 September 2017 02:59:19
Eccentricity: 0.0000746
inclination: 98.3439°
perigee height: 772 km
apogee height: 774 km
right ascension of ascending node: 217.3978°
argument of perigee: 44.0241°
revolutions per day: 14.35570127
mean anomaly at epoch: 316.1004°
orbit number at epoch: 72942

The dashed part of the orbit path shows where the satellite is in the earth's shadow,  

DLR